Flag for Switzerland Weather past 2 weeks in Aarau, Aargau, Switzerland

Now
60 °F

Refreshingly cool.


Feels Like: 60 °F
Forecast: 44 / 64 °F
Wind: 2 mph from Southwest

Location: Wynau

Current Time: Sep 5, 2015 at 3:19:05 PM

Latest Report: Sep 5, 2015 at 2:00 PM


Visibility: N/A

Pressure: 30.07 "Hg

Humidity: 53%

Dew point: 43 °F

Location of AarauLocation

Historic Weather in Aarau — Graph

°F

Aarau temperature yesterday

Maximum temperature yesterday: 68 °F (at 3:00 PM)
Minimum temperature yesterday: 49 °F (at 7:00 AM)
Average temperature yesterday: 60 °F

Past Weeks' High & Low Weather Summary

 TemperatureHumidityPressure
High92 °F (Aug 30, 4:00 PM)100% (Aug 25, 8:00 AM)30.18 "Hg (Aug 25, 8:00 AM)
Low47 °F (Aug 26, 7:00 AM)23% (Aug 30, 5:00 PM)29.71 "Hg (Aug 24, 7:00 AM)
Average66 °F72%29.99 "Hg
* Reported Aug 21 2:00 PM — Sep 5 2:00 PM, Aarau, Weather by CustomWeather, © 2015

Note: Actual official high and low records may vary slightly from our data, if they occured in-between our weather recording intervals... More about our weather records

Advertising

Aarau weather history for previous 24 hours

 ConditionsComfort  
Time TempWeatherWind HumidityBarometerVisibility
2:00 PM
Sat, Sep 5
60 °FRefreshingly cool.2 mph53%30.07 "HgN/A
1:00 PM60 °FRefreshingly cool.2 mph49%30.07 "HgN/A
12:00 PM60 °FRefreshingly cool.6 mph53%30.07 "HgN/A
11:00 AM59 °FRefreshingly cool.3 mph54%30.06 "HgN/A
10:00 AM58 °FRefreshingly cool.5 mph56%30.05 "HgN/A
9:00 AM56 °FRefreshingly cool.3 mph59%30.05 "HgN/A
8:00 AM55 °FCool.2 mph65%30.04 "HgN/A
7:00 AM55 °FCool.2 mph68%30.03 "HgN/A
6:00 AM56 °FRefreshingly cool.3 mph60%30.02 "HgN/A
4:00 AM58 °FRefreshingly cool.3 mph53%30.02 "HgN/A
3:00 AM58 °FRefreshingly cool.2 mph55%30.02 "HgN/A
2:00 AM59 °FRefreshingly cool.3 mph53%30.01 "HgN/A
1:00 AM60 °FRefreshingly cool.6 mph52%30.01 "HgN/A
12:00 AM59 °FRefreshingly cool.3 mph54%30.00 "HgN/A
10:00 PM
Fri, Sep 4
61 °FRefreshingly cool.5 mph47%29.98 "HgN/A
9:00 PM63 °FMild.2 mph46%29.96 "HgN/A
7:00 PM65 °FMild.5 mph47%29.94 "HgN/A
6:00 PM67 °FMild.7 mph46%29.93 "HgN/A
5:00 PM67 °FMild.8 mph48%29.93 "HgN/A
4:00 PM68 °FMild.7 mph45%29.94 "HgN/A
3:00 PM68 °FMild.5 mph47%29.96 "HgN/A
Weather by CustomWeather, © 2015

See weather overviewHow to use our weather pages